Tracking 27086 objects as of 22-Mar-2023
HD Live streaming from Space Station
objects crossing your sky now

STARLINK-2654

Track STARLINK-2654 now!
10-day predictions
STARLINK-2654 is classified as:


NORAD ID: 48454
Int'l Code: 2021-040AC
Perigee: 553.5 km
Apogee: 555.3 km
Inclination: 53.1 °
Period: 95.6 minutes
Semi major axis: 6925 km
RCS: Unknown
Launch date: May 9, 2021
Source: United States (US)
Launch site: AIR FORCE EASTERN TEST RANGE (AFETR)
Your satellite tracking list
Your tracking list is empty




NASA's NSSDC Master Catalog

Two Line Element Set (TLE):
1 48454U 21040AC  23081.25859713  .00037835  00000-0  25468-2 0  9999
2 48454  53.0557   5.3301 0001293  72.2319 287.8811 15.06378248104614
Source of the keplerian elements: AFSPC